CZ-6A DEB

Satellite information

Favourite Embed

Satellite Type and Status

DEBRISIN ORBIT

Key statistics

Satellite CZ-6A DEB at a glance.

Uptime

1023

Days in orbit

Revolutions

≈ 14.3

Per day

Orbit

SSO

Sun Synchronous Orbit

Inclination

98.7

Latest

Satellite identification and parameters

Extended collection of information and parameters for CZ-6A DEB.

Object identification

Identified? True

Debris? True

Object name: CZ-6A DEB

International designator: 2022-151MX

Object number (NORAD): 54597

Object ID (CCSDS): 54597

Country: PEOPLES REPUBLIC OF CHINA (PRC)

Current information (Y/N): Y

RCS size: SMALL

Orbital parameters

Period: 100.396 minutes

Inclination: 98.6811 deg

SMA: 7155.443 km

Apoapsis: 828.235 km

Periapsis: 726.382 km

RAAN: 258.3135 deg

Eccentricy: 0.00711717

Argument of periapsis: 216.5535 deg

Mean anomaly: 143.0781 deg

Mean motion: 14.34326306 rev/day

Mean motion (dot): 0.00002117 rev/day2

B* drag term: 0.00074761614 1/REarth

Two-line elements (TLE)

Creation date: Aug. 27, 2025, 8:01 p.m.

Reference frame: TEME

Reference center: EARTH

Epoch: Aug. 27, 2025, 7:36 a.m. UTC

TLE line 0: 0 CZ-6A DEB

TLE line 1: 1 54597U 22151MX 25239.31696591 .00002117 00000-0 74762-3 0 9992

TLE line 2: 2 54597 98.6811 258.3135 0071172 216.5535 143.0781 14.34326306145069

Live tracking on map

Real-time ground track for satellite CZ-6A DEB.

In-orbit conjunctions

A list of the most updated potential collisions computed for object CZ-6A DEB.

Target Orbit TCA Probability of collision Miss distance Type
NOAA 16 SSO 2024-10-14 09:37:31 0.0006208965 350.0 (m) PAYLOAD

Associated space launch

Chinese satellite reported for atmospheric/ocean/environmental/spatial parameter research purposes, details TBD.

CZ-6A DEB was lifted into orbit during the mission ‘Long March 6A | Yunhai 3’, on board a Long March 6A space rocket.

The launch took place on Nov. 11, 2022, 10:52 p.m. from Launch Complex 9A.

For more information about the launch, click the button.

Launch to space Long March 6A | Yunhai 3
Long March 6A | Yunhai 3

Agency: N/A

Status: Launch Successful

Launch date: Nov. 11, 2022, 10:52 p.m. UTC

Rocket: Long March 6A

Launch pad: Launch Complex 9A

Location: Taiyuan Satellite Launch Center, People's Republic of China

...

Latest news about this satellite

There are no fresh news available about this satellite. Check back as we update our databases every day.


Newsletter sign-up

Weekly statistics, charts and insights to help you stay on top of the space industry.